Date String (YYYY-MM-DD hh:mm:ss) UTC,Instrument flags,absolute air pressure of the measurement (hPa),sample flow rate (lpm),inlet stack bypass flow (lpm),air temperature of the measurement (°C),ambient temperature measured by the external sensor (°C),aerosol sample conditioner tube jacket temperature (°C),OPC LED temperature (°C),internal box temperature (°C),relative humidity of the measurement (%),span deviation,mass concentration of particles derived from Lorenz-Mie calculation of OPC scattering (μg/m³),mass concentration of particles derived from Lorenz-Mie calculation of OPC scattering (μg/m³),mass concentration of particles derived from Lorenz-Mie calculation of OPC scattering (μg/m³)
DateTimeUTC,F1_M11,P_M11,Q1_M11,Q2_M11,T1_M11,T2_M11,T3_M11,T4_M11,T5_M11,U1_M11,ZSPAN_M11,X2_M11,X0_M11,X1_M11
2023-06-09 01:00:00,SystemResetWarning,0829.6,5.00,000.00,029.5,025.5,000.0,037.9,031.1,26.3,0000.0,0003.27,0009.54,0002.43
2023-06-09 01:01:00,SystemResetWarning,0829.6,5.00,000.00,029.5,025.2,000.0,037.9,031.1,27.3,0000.0,0003.28,0009.69,0002.43
2023-06-09 01:02:00,SystemResetWarning,0829.6,5.01,000.00,029.4,025.5,000.0,037.9,030.8,27.4,0000.0,0003.26,0009.96,0002.42
2023-06-09 01:03:00,SystemResetWarning,0829.6,4.99,000.00,029.4,025.9,000.0,037.9,030.7,26.9,0000.0,0003.28,0009.42,0002.40
2023-06-09 01:04:00,SystemResetWarning,0829.6,5.01,000.00,029.3,026.3,000.0,037.9,030.7,26.9,0000.0,0003.29,0009.61,0002.40
2023-06-09 01:05:00,SystemResetWarning,0829.6,5.01,000.00,029.3,026.6,000.0,037.9,030.8,27.0,0000.0,0003.30,0009.75,0002.42
2023-06-09 01:06:00,SystemResetWarning,0829.7,5.00,000.00,029.3,027.0,000.0,037.9,030.8,27.2,0000.0,0003.29,0009.35,0002.42
2023-06-09 01:07:00,SystemResetWarning,0829.7,4.99,000.00,029.4,027.3,000.0,037.9,030.9,27.0,0000.0,0003.32,0009.42,0002.43
2023-06-09 01:08:00,SystemResetWarning,0829.7,5.00,000.00,029.4,027.5,000.0,037.9,030.9,27.4,0000.0,0003.36,0009.78,0002.46
2023-06-09 01:09:00,SystemResetWarning,0829.7,5.00,000.00,029.4,027.7,000.0,037.9,031.0,27.7,0000.0,0003.37,0009.99,0002.47
2023-06-09 01:10:00,SystemResetWarning,0829.7,5.00,000.00,029.5,027.9,000.0,037.9,031.1,27.5,0000.0,0003.37,0009.92,0002.49
2023-06-09 01:11:00,SystemResetWarning,0829.7,5.00,000.00,029.5,028.0,000.0,038.0,031.1,27.8,0000.0,0003.39,0009.95,0002.50
2023-06-09 01:12:00,SystemResetWarning,0829.7,5.00,000.00,029.5,027.7,000.0,038.0,031.2,27.7,0000.0,0003.40,0009.61,0002.51
2023-06-09 01:13:00,SystemResetWarning,0829.7,5.00,000.00,029.5,025.9,000.0,037.9,031.2,27.0,0000.0,0003.39,0008.89,0002.52
2023-06-09 01:14:00,SystemResetWarning,0829.7,5.01,000.00,029.5,025.2,000.0,037.9,031.1,27.8,0000.0,0003.37,0008.61,0002.53
2023-06-09 01:15:00,SystemResetWarning,0829.7,5.01,000.00,029.5,025.3,000.0,037.9,030.8,28.1,0000.0,0003.35,0008.06,0002.53
2023-06-09 01:16:00,SystemResetWarning,0829.7,5.00,000.00,029.4,025.7,000.0,037.9,030.7,28.3,0000.0,0003.37,0008.14,0002.52
2023-06-09 01:17:00,SystemResetWarning,0829.7,5.00,000.00,029.3,026.1,000.0,037.9,030.7,28.2,0000.0,0003.37,0008.28,0002.52
2023-06-09 01:18:00,SystemResetWarning,0829.7,5.00,000.00,029.3,026.5,000.0,037.9,030.7,28.1,0000.0,0003.34,0007.88,0002.53
2023-06-09 01:19:00,SystemResetWarning,0829.7,4.99,000.00,029.3,026.8,000.0,037.9,030.7,28.2,0000.0,0003.34,0007.54,0002.53
2023-06-09 01:20:00,SystemResetWarning,0829.7,5.00,000.00,029.3,027.1,000.0,037.9,030.8,27.7,0000.0,0003.32,0007.20,0002.53
2023-06-09 01:21:00,SystemResetWarning,0829.8,5.00,000.00,029.3,027.4,000.0,037.9,030.9,27.3,0000.0,0003.33,0007.20,0002.52
2023-06-09 01:22:00,SystemResetWarning,0829.8,5.01,000.00,029.4,027.6,000.0,037.9,030.9,27.6,0000.0,0003.35,0007.76,0002.53
2023-06-09 01:23:00,SystemResetWarning,0829.8,5.01,000.00,029.4,027.8,000.0,037.9,031.0,28.9,0000.0,0003.39,0008.61,0002.53
2023-06-09 01:24:00,SystemResetWarning,0829.8,4.99,000.00,029.4,028.0,000.0,037.9,031.0,30.1,0000.0,0003.52,0010.30,0002.54
2023-06-09 01:25:00,SystemResetWarning,0829.8,5.00,000.00,029.5,028.1,000.0,037.9,031.1,29.1,0000.0,0003.57,0010.65,0002.55
2023-06-09 01:26:00,SystemResetWarning,0829.9,4.99,000.00,029.5,028.1,000.0,038.0,031.1,28.9,0000.0,0003.62,0010.65,0002.57
2023-06-09 01:27:00,SystemResetWarning,0829.9,4.99,000.00,029.5,026.6,000.0,037.9,031.2,28.4,0000.0,0003.65,0010.71,0002.59
2023-06-09 01:28:00,SystemResetWarning,0829.9,5.00,000.00,029.5,025.3,000.0,037.9,031.1,27.4,0000.0,0003.66,0011.17,0002.62
2023-06-09 01:29:00,SystemResetWarning,0829.9,5.01,000.00,029.5,025.2,000.0,037.9,030.8,27.2,0000.0,0003.66,0011.96,0002.62
2023-06-09 01:30:00,SystemResetWarning,0829.9,5.00,000.00,029.4,025.5,000.0,037.9,030.6,27.4,0000.0,0003.65,0012.11,0002.64
2023-06-09 01:31:00,SystemResetWarning,0829.9,5.00,000.00,029.3,025.9,000.0,037.9,030.6,27.6,0000.0,0003.66,0012.13,0002.66
2023-06-09 01:32:00,SystemResetWarning,0829.9,5.00,000.00,029.3,026.3,000.0,037.9,030.6,27.8,0000.0,0003.67,0012.12,0002.66
2023-06-09 01:33:00,SystemResetWarning,0829.9,5.00,000.00,029.3,026.7,000.0,037.9,030.7,27.8,0000.0,0003.61,0011.60,0002.64
2023-06-09 01:34:00,SystemResetWarning,0830.0,4.99,000.00,029.3,027.0,000.0,037.9,030.8,27.4,0000.0,0003.54,0011.28,0002.65
2023-06-09 01:35:00,SystemResetWarning,0830.0,5.00,000.00,029.3,027.3,000.0,037.9,030.8,27.1,0000.0,0003.44,0010.04,0002.63
2023-06-09 01:36:00,SystemResetWarning,0830.0,5.00,000.00,029.4,027.5,000.0,037.9,030.9,27.7,0000.0,0003.39,0009.63,0002.63
2023-06-09 01:37:00,SystemResetWarning,0830.0,5.01,000.00,029.4,027.7,000.0,037.9,031.0,27.8,0000.0,0003.34,0009.89,0002.61
2023-06-09 01:38:00,SystemResetWarning,0830.0,4.99,000.00,029.4,027.9,000.0,037.9,031.0,28.3,0000.0,0003.30,0009.68,0002.60
2023-06-09 01:39:00,SystemResetWarning,0830.0,4.99,000.00,029.5,028.0,000.0,037.9,031.0,29.3,0000.0,0003.30,0009.18,0002.59
2023-06-09 01:40:00,SystemResetWarning,0829.9,5.00,000.00,029.5,028.1,000.0,038.0,031.1,30.0,0000.0,0003.32,0008.94,0002.60
2023-06-09 01:41:00,SystemResetWarning,0829.9,5.00,000.00,029.5,028.2,000.0,038.0,031.1,30.5,0000.0,0003.37,0009.53,0002.61
2023-06-09 01:42:00,SystemResetWarning,0829.9,5.00,000.00,029.6,027.7,000.0,038.0,031.2,29.4,0000.0,0003.43,0010.17,0002.63
2023-06-09 01:43:00,SystemResetWarning,0829.9,5.00,000.00,029.5,025.8,000.0,037.9,031.0,28.3,0000.0,0003.47,0010.68,0002.66
2023-06-09 01:44:00,SystemResetWarning,0829.9,5.00,000.00,029.5,025.1,000.0,037.9,031.0,27.6,0000.0,0003.51,0010.83,0002.70
2023-06-09 01:45:00,SystemResetWarning,0829.9,5.01,000.00,029.4,025.3,000.0,037.9,030.7,27.7,0000.0,0003.54,0011.46,0002.73
2023-06-09 01:46:00,SystemResetWarning,0829.9,5.00,000.00,029.3,025.7,000.0,037.9,030.6,28.1,0000.0,0003.59,0011.22,0002.78
2023-06-09 01:47:00,SystemResetWarning,0829.9,4.99,000.00,029.3,026.1,000.0,037.9,030.6,27.7,0000.0,0003.68,0012.21,0002.83
2023-06-09 01:48:00,SystemResetWarning,0829.9,5.00,000.00,029.3,026.5,000.0,037.9,030.7,27.8,0000.0,0003.72,0012.63,0002.86
2023-06-09 01:49:00,SystemResetWarning,0829.9,5.00,000.00,029.3,026.8,000.0,037.9,030.7,28.6,0000.0,0003.74,0012.66,0002.88
2023-06-09 01:50:00,SystemResetWarning,0830.0,5.02,000.00,029.3,027.1,000.0,037.9,030.8,28.6,0000.0,0003.71,0012.47,0002.91
2023-06-09 01:51:00,SystemResetWarning,0830.0,5.00,000.00,029.3,027.4,000.0,037.9,030.8,28.5,0000.0,0003.69,0011.81,0002.93
2023-06-09 01:52:00,SystemResetWarning,0830.0,5.00,000.00,029.4,027.6,000.0,037.9,030.9,28.8,0000.0,0003.69,0011.02,0002.95
2023-06-09 01:53:00,SystemResetWarning,0830.0,5.00,000.00,029.4,027.7,000.0,037.9,030.9,29.0,0000.0,0003.70,0010.61,0002.97
2023-06-09 01:54:00,SystemResetWarning,0830.0,5.00,000.00,029.4,027.9,000.0,037.9,030.9,29.3,0000.0,0003.71,0010.07,0003.00
2023-06-09 01:55:00,SystemResetWarning,0830.0,5.00,000.00,029.5,028.0,000.0,038.0,031.0,29.6,0000.0,0003.72,0010.02,0003.04
2023-06-09 01:56:00,SystemResetWarning,0830.0,5.00,000.00,029.5,028.1,000.0,038.0,031.1,29.6,0000.0,0003.73,0008.85,0003.07
2023-06-09 01:57:00,SystemResetWarning,0830.0,4.98,000.00,029.5,027.5,000.0,038.0,031.1,29.0,0000.0,0003.74,0008.71,0003.09
2023-06-09 01:58:00,SystemResetWarning,0830.0,5.00,000.00,029.5,025.6,000.0,037.9,031.0,29.0,0000.0,0003.66,0007.83,0003.09
2023-06-09 01:59:00,SystemResetWarning,0830.0,5.01,000.00,029.5,025.0,000.0,037.9,031.0,29.0,0000.0,0003.66,0006.52,0003.11
